Submittal Forms
Current Contests
Recent Contests

Club Activity Tracker - Metro DX Club (from list of calls managed by W9ILY)

Recent postings for the selected club or group are listed below. Other than the call used, all calls listed are only those associated with the club or group. Click on a call to see the details of the posting.
Status Key: new=new posting, update=update prior posting, move=change club/group, delete=delete prior posting.

Sort by   for past

TimestampCallContestClassPowerScoreStatus
2021-05-09 12:19:46N2BJVolta RTTYSOABHP45,250,359new6411
2021-05-07 02:22:01K9PMVARISO CWLP165new6393
2021-05-07 02:15:20K9PMVInQPSingle OpLP72new6395
2021-05-07 02:08:02K9PMVNewEngQPSingle OpLP4,080new6397
2021-05-07 02:00:35K9PMV7QPSO(A)CWLP5,724new6394
2021-05-06 04:08:47K9ZOCWopsTSingle OpHP25,122new6404
2021-05-06 04:03:51WA9LEYCWopsTSingle OpLP2,350new6404
2021-05-06 04:00:57W9ILYCWopsTSingle OpHP13,038new6404
2021-05-06 02:39:28K9ZOCWopsTSingle OpHP20,850new6403
2021-05-05 20:03:15WA9LEYCWopsTSingle OpLP900new6403
 
2021-05-05 20:00:50W9ILYCWopsTSingle OpHP15,876new6403
2021-05-05 14:03:11K9ACMCWopsTAcademy Single OpLP784new6402
2021-05-05 14:01:43W9ILYCWopsTSingle OpLP4,624new6402
2021-05-03 21:38:01NV9LInQPM/SHP6,318new6395
 (WB9Z,@NV9L)
2021-05-03 21:37:19NV9LNewEngQPM/SHP48,704new6397
 (WB9Z,@NV9L)
2021-05-03 21:35:34NV9LDeQPM/SHP3,000new6396
 (WB9Z,@NV9L)
2021-05-03 21:34:57WA9LEYDeQPSingle OpLP170new6396
2021-05-03 21:34:40NV9L7QPM/SHP100,590new6394
 (WB9Z,@NV9L)
2021-05-03 19:30:10N2BJInQPSingle OpHP8new6395
2021-05-03 19:28:31N2BJNewEngQPSingle OpHP11,308new6397
 
2021-05-03 19:26:36N2BJ7QPSO(A)MixedHP44,196new6394
2021-05-03 18:22:48W9ILYARISO RTTYHP17,860new6393
2021-05-03 18:13:31W9ILY7QPSO(A)CWLP8,316new6394
2021-05-03 14:17:30WA9LEYNewEngQPSO MobileLP600new6397
2021-05-03 13:56:02WA9LEY7QPSO MobileMixedLP10,504new6394
2021-05-03 00:20:09NE9ANewEngQPSingle OpLP1,480new6397
2021-05-02 19:44:06WA9LEYInQPMobileLP13,623new6395
 (@WA9LEY)
2021-05-02 14:55:57NE9A7QPSOCWLP4,950new6394
2021-04-29 04:03:38K9ZOCWopsTSingle OpHP21,608new6386
2021-04-29 04:02:05WT2PCWopsTSingle OpHP4,485new6386
 
2021-04-29 04:01:25WA9LEYCWopsTSingle OpLP1,763new6386
2021-04-29 04:01:08W9ILYCWopsTSingle OpHP14,732new6386
2021-04-28 23:51:04WA9LEYCWopsTSingle OpLP576new6385
2021-04-28 21:38:36K9ZOCWopsTSingle OpHP27,520new6385
2021-04-28 20:30:45W9ILYCWopsTSingle OpHP5,041new6385
2021-04-28 20:00:39WT2PCWopsTSingle OpHP400new6385
2021-04-28 15:52:19K9ZOCWopsTSingle OpLP11,449new6384
2021-04-28 14:20:19K9ACMCWopsTAcademy Single OpLP676new6384
2021-04-28 14:05:14WA9LEYCWopsTSingle OpQRP961new6384
2021-04-28 14:02:20W9ILYCWopsTSingle OpLP5,852new6384
 
2021-04-28 14:01:26WT2PCWopsTSingle OpHP5,329new6384
2021-04-27 19:06:46W9ILYFlQPSOAB(A)CWLP7,622new6375
2021-04-27 18:58:13W9ILYBARTG 75Single OpHP816new6374
2021-04-27 18:50:04W9ILYSPDX RTTYSOABHP141,220new6372
2021-04-26 22:32:56WA9LEYFlQPSOAB(A)CWLP12,160new6375
2021-04-26 14:35:51K9PMVFlQPSOABMixedLP1,224new6375
2021-04-26 01:38:06WT2PFlQPSOAB(A)CWHP476new6375
2021-04-26 01:23:51N2BJFlQPSOAB(A)MixedHP111,360new6375
2021-04-25 22:05:18NV9LFlQPM/SMixedLP198,072new6375
 (NV9L,@WB9Z)
2021-04-22 04:27:41K9ZOCWopsTSingle OpHP24,613new6366
 
2021-04-22 04:18:32K9ZOCWopsTSingle OpHP25,232new6365
2021-04-22 04:02:28WA9LEYCWopsTSingle OpLP3,190new6366
2021-04-22 04:01:27WT2PCWopsTSingle OpHP5,850new6366
2021-04-22 04:00:54W9ILYCWopsTSingle OpHP5,025new6366
2021-04-21 21:10:37K9ACMCWopsTAcademy Single OpLP225new6365
2021-04-21 20:05:50WA9LEYCWopsTSingle OpLP3,249new6365
2021-04-21 20:03:53WT2PCWopsTSingle OpHP196new6365
2021-04-21 20:01:05W9ILYCWopsTSingle OpHP10,914new6365
2021-04-21 15:27:11K9ZOCWopsTSingle OpHP32,400new6364
2021-04-21 14:16:32K9ACMCWopsTAcademy Single OpLP484new6364
 
2021-04-21 14:11:33W9ILYCWopsTSingle OpHP10,609new6364
2021-04-21 14:10:40WA9LEYCWopsTSingle OpQRP729new6364
2021-04-20 14:32:12WA9LEYCQMM DXSOABLP3,760new6356
2021-04-19 19:06:49K9PMVCQMM DXSOABLP69new6356
2021-04-19 18:37:42WA9LEYMiQPSingle OpLP884new6357
2021-04-19 18:33:42WA9LEYOnQPSO MixedLP765new5642
2021-04-19 16:55:58W9ILYCQMM DXSOABHP10,224new6356
2021-04-19 13:18:06N2BJMiQPSingle OpHP1,216new6357
2021-04-19 13:10:05N2BJCQMM DXSOABHP66,732new6356
2021-04-15 04:38:12K9ZOCWopsTSingle OpHP12,426new6346
 
2021-04-15 04:20:41K9ZOCWopsTSingle OpHP22,540new6347
2021-04-15 04:03:43WA9LEYCWopsTSingle OpLP4,096new6347
2021-04-15 04:00:58W9ILYCWopsTSingle OpHP12,971new6347
2021-04-15 04:00:48WT2PCWopsTSingle OpHP7,832new6347
2021-04-14 21:32:21WA9LEYCWopsTSingle OpLP1,089new6346
2021-04-14 20:08:03K9ACMCWopsTAcademy Single OpLP361new6346
2021-04-14 20:01:21W9ILYCWopsTSingle OpHP13,542new6346
2021-04-14 14:41:33K9ZOCWopsTSingle OpHP32,400new6345
2021-04-14 14:11:18W9ILYCWopsTSingle OpLP4,620new6345
2021-04-14 14:05:53WA9LEYCWopsTSingle OpQRP1,089new6345
 
2021-04-12 15:10:59WA9LEYNeQPFixedLP192new6334
2021-04-12 14:31:20WA9LEYGaQPSingle OpMixedLP5,180new6336
2021-04-12 14:00:17WA9LEYNMQPSingle OpLP525new6335
2021-04-11 21:05:24WA9LEYNDQPFixedLP25new6337
2021-04-11 19:40:22W9ILYIG-RY RTTYSingle OpHP48,521new